SCP
-0 -0 -0 -0 -0 -0 -0 -0 -0 -0 -0 -0 -0 -0 -0 0 0 0 0 -0 0 0 0 0 0 0 0 0 0 0 0 -0 -0 -0 0 -0 -0 0 0 0 -0 -0 -0 -0 -0
-0 -0 -0 -0 -0 -0 -0 -0 -0 -0 -0 -0 -0 -0 -0 0 0 0 0 -0 0 0 0 0 0 0 0 0 0 0 -0 0 0 0 -0 -0 0 0 0 0 -0 -0 -0 0 0
-0 -0 -0 -0 -0 -0 -0 -0 -0 -0 -0 -0 0 0 0 0 0 0 0 -0 0 0 0 0 0 0 0 0 0 -0 0 -0 -0 -0 -0 0 0 0 0 -0 -0 0 0 0 -0
-0 -0 -0 -0 -0 -0 -0 -0 -0 -0 -0 0 0 0 0 0 0 0 0 0 0 0 0 0 0 0 0 0 0 -0 -0 -0 -0 -0 -0 0 0 0 0 -0 0 0 0 0 0
-0 -0 -0 -0 -0 -0 -0 -0 -0 -0 -0 0 0 0 0 0 0 0 0 0 0 0 0 0 0 0 0 0 -0 -0 -0 -0 -0 -0 -0 0 0 0 0 0 -0 0 0 -0 0
-0 -0 -0 -0 -0 -0 -0 -0 -0 -0 -0 0 0 0 0 0 0 0 0 0 0 0 0 0 0 0 0 0 -0 -0 -0 -0 -0 -0 -0 0 0 0 0 0 -0 -0 0 0 0
-0 -0 -0 -0 -0 -0 -0 -0 -0 0 -0 -0 -0 -0 0 0 0 0 0 0 0 0 0 0 0 0 0 0 -0 0 0 0 -0 -0 -0 -0 0 0 0 0 0 0 0 0 -0
-0 -0 -0 -0 -0 -0 -0 -0 0 -0 0 0 0 -0 0 0 0 0 0 0 0 0 0 0 0 0 0 -0 0 0 0 0 -0 -0 -0 0 0 -0 0 -0 0 0 0 0 -0
-0 -0 -0 -0 -0 -0 -0 -0 -0 0 0 0 0 0 0 0 0 0 0 0 0 0 0 0 0 0 0 0 0 0 0 -0 -0 -0 -0 0 -0 -0 -0 -0 0 0 0 0 0
-0 -0 -0 -0 -0 -0 -0 -0 0 0 0 -0 0 0 0 0 0 0 0 0 0 0 0 0 0 0 0 0 0 0 0 0 0 -0 0 0 -0 0 0 0 -0 0 0 1 0
-0 -0 -0 -0 -0 -0 0 -0 -0 0 0 0 0 -0 0 0 0 0 0 0 0 0 0 0 0 0 0 0 0 0 0 0 0 0 0 0 0 -0 0 0 -0 0 0 0 0
-0 -0 -0 -0 -0 -0 0 0 -0 0 0 0 0 0 -0 0 0 0 0 0 0 0 0 0 -0 0 0 0 0 0 0 0 0 -0 0 0 0 0 0 0 0 0 0 0 0
0 0 -0 -0 -0 0 0 0 -0 0 0 0 0 0 0 0 0 0 0 0 0 0 0 0 0 0 0 0 0 0 0 0 0 0 0 0 0 0 -0 0 0 0 0 0 0
0 0 0 -0 0 0 0 0 -0 -0 0 0 0 0 0 0 0 0 0 0 0 0 0 0 0 0 0 0 0 0 0 0 0 0 0 0 0 0 0 0 0 0 0 0 -0
0 0 0 0 0 0 0 0 0 0 0 0 0 0 0 0 0 0 0 0 0 0 0 0 0 0 0 0 0 0 0 0 0 0 0 0 0 0 0 0 0 0 0 0 -0
0 0 0 -0 0 0 0 0 0 0 0 0 0 0 0 -0 0 0 0 0 0 0 0 0 0 0 0 0 0 0 0 0 0 0 0 0 0 0 0 0 0 0 0 0 0
0 0 0 0 0 0 0 0 0 0 0 0 0 0 0 0 -0 0 0 0 0 0 0 0 0 0 0 0 0 0 0 0 0 0 0 0 0 0 0 0 0 0 0 0 1
0 0 0 0 0 0 0 0 0 0 0 0 0 0 0 0 0 0 0 0 0 0 0 0 0 0 0 0 0 0 0 0 0 0 0 0 0 0 0 0 0 0 0 0 1
0 0 0 0 0 0 0 0 0 0 0 0 0 0 0 0 0 0 0 0 0 0 0 0 0 0 0 0 0 0 0 0 0 0 0 0 0 0 0 0 0 0 0 0 1
0 0 0 0 0 0 0 0 0 0 0 0 0 0 0 0 0 0 0 0 0 0 0 0 0 0 0 0 0 0 0 0 0 0 0 0 0 0 0 0 0 0 0 0 0
0 0 0 0 0 0 0 0 0 0 0 0 0 0 0 0 0 0 0 0 0 0 0 0 0 0 0 0 0 0 0 0 0 0 0 0 0 0 0 0 0 0 0 0 0
0 0 0 0 0 0 0 0 0 0 0 0 0 0 0 0 0 0 0 0 0 0 0 0 0 0 0 0 0 0 0 0 0 0 0 0 0 0 0 0 0 0 0 0 0
0 0 0 0 0 0 0 0 0 0 0 0 0 0 0 0 0 0 0 0 0 0 0 0 0 0 0 0 0 0 0 0 0 0 0 0 0 0 0 0 0 0 0 0 0
0 0 0 0 0 0 0 0 0 0 0 0 0 0 0 0 0 0 0 0 0 0 0 0 0 0 0 0 0 0 0 0 0 0 0 0 0 0 0 0 0 0 0 0 0
0 0 0 0 0 0 0 0 0 0 0 0 0 0 0 0 0 0 0 0 0 0 0 0 0 0 0 0 0 0 0 0 0 0 0 0 0 0 0 0 0 0 0 0 0
0 0 0 0 0 0 0 0 0 0 0 0 0 0 0 0 0 0 0 0 0 0 0 0 0 0 0 0 0 0 0 0 0 0 0 0 0 0 0 0 0 0 0 0 0
0 0 0 0 0 0 0 0 0 0 0 0 0 0 0 0 0 0 0 0 0 0 0 0 0 0 0 0 0 0 0 0 0 0 0 0 0 0 0 0 0 0 0 0 0
Wind_Speed_500mb
44 44 43 44 45 46 45 37 31 25 22 19 15 10 5 4 7 12 13 7 18 8 8 7 13 9 2 6 9 6 8 5 10 15 10 13 8 22 14 34 11 15 30 55 56
44 43 43 43 42 42 43 38 31 27 24 21 17 13 11 9 10 10 6 17 17 10 9 15 16 6 6 8 10 8 8 17 14 17 16 28 20 29 13 32 8 20 50 54 54
43 43 43 43 42 39 38 35 30 26 24 22 20 18 14 13 7 11 12 17 15 13 14 12 7 6 7 10 12 11 10 8 8 23 35 15 16 18 21 6 15 57 65 60 55
44 43 43 43 42 39 36 32 28 25 23 22 20 20 16 8 7 5 4 15 12 15 13 8 1 6 6 6 6 3 2 5 12 13 13 18 18 8 27 8 25 59 61 63 58
44 44 43 43 42 41 37 29 27 24 21 20 20 21 18 9 6 7 6 17 15 16 13 4 3 5 5 4 2 5 1 13 15 19 18 15 10 8 35 14 38 58 60 59 55
44 44 44 43 43 41 34 28 26 25 21 17 19 21 17 5 6 9 4 17 16 18 13 5 4 6 3 3 3 6 15 15 17 17 11 13 3 9 22 22 47 58 62 58 54
46 45 45 44 42 40 29 32 29 23 19 15 18 22 16 4 1 7 4 12 15 15 6 1 6 7 7 8 10 8 10 14 15 11 6 3 7 8 28 37 55 57 57 55 54
48 47 45 44 42 37 30 31 32 26 11 12 14 20 12 10 9 9 6 14 16 11 7 4 10 4 6 27 8 10 12 6 6 6 8 9 19 9 32 40 50 47 52 52 51
50 49 47 44 40 35 30 29 34 24 3 13 13 6 13 6 1 10 11 9 5 8 11 10 2 6 9 10 9 15 8 3 2 9 5 2 14 8 37 42 37 39 44 45 47
53 51 48 44 39 33 29 28 32 9 9 17 7 4 13 7 17 8 16 18 11 10 2 6 7 7 8 10 9 9 9 3 8 14 6 5 27 11 22 38 44 46 47 45 42
53 53 49 43 38 27 25 26 27 5 34 35 30 29 37 18 13 1 6 14 12 5 4 7 8 9 12 8 10 10 9 11 9 15 15 29 31 22 21 29 38 51 57 53 48
53 53 50 42 37 15 17 13 20 24 31 48 40 48 49 42 13 12 6 11 9 7 2 11 4 10 9 10 10 12 16 14 7 6 21 5 33 10 16 17 37 48 59 64 59
52 52 49 41 30 10 13 16 30 37 12 32 8 18 33 30 22 25 15 12 7 9 6 10 8 5 11 9 11 9 9 7 7 6 7 10 10 12 12 29 24 39 60 66 72
48 49 48 43 12 31 6 22 32 25 9 13 7 3 22 19 9 38 34 14 3 16 15 8 7 3 4 9 14 7 16 9 15 10 8 5 9 10 13 16 18 44 58 72 78
46 48 46 40 38 32 22 19 23 4 8 6 1 4 24 21 5 13 31 26 14 12 12 11 7 9 8 11 14 16 11 9 4 9 10 2 8 15 7 12 24 43 68 76 87
44 46 47 43 36 16 25 21 4 11 11 11 5 5 7 6 3 4 11 13 11 7 1 12 4 7 13 5 10 13 14 15 11 6 2 10 12 11 9 22 24 44 68 83 87
44 41 46 45 37 32 19 11 9 7 9 8 4 6 7 6 5 5 8 8 11 6 6 7 8 8 8 5 8 13 14 4 5 7 11 3 7 17 12 11 18 30 62 80 76
44 40 41 41 25 23 10 8 6 7 11 8 8 7 7 9 7 4 9 7 6 10 5 5 10 11 8 9 13 10 15 12 13 9 12 3 11 12 13 14 25 46 64 54 75
44 37 32 26 19 15 17 4 14 12 6 11 12 6 6 7 1 3 10 9 14 17 17 9 11 9 8 6 9 9 7 8 15 7 4 6 11 16 7 13 7 18 22 41 66
44 36 14 18 9 27 7 11 9 7 6 5 5 5 1 5 2 4 4 5 7 19 9 7 5 9 2 9 9 8 9 6 5 10 9 9 8 10 10 19 10 11 21 36 49
33 19 18 2 20 13 7 13 10 20 10 5 4 5 3 5 2 4 8 4 5 5 8 12 11 16 5 7 16 5 2 10 9 8 13 6 12 15 17 17 18 23 27 34 41
17 6 11 17 3 3 6 10 7 7 3 5 4 8 8 3 5 4 10 10 11 14 11 6 9 10 20 4 5 3 13 12 11 9 3 7 12 7 18 16 28 34 36 40 41
21 12 16 12 5 6 9 8 9 5 5 1 5 10 5 2 6 10 10 14 13 11 12 13 2 3 16 12 4 7 8 7 12 7 13 12 12 5 12 14 30 42 40 46 52
11 6 4 8 2 2 3 10 9 11 10 10 9 5 3 5 11 10 7 7 8 7 16 19 7 15 13 15 4 6 9 8 9 9 10 13 11 12 14 16 17 28 42 49 52
4 3 4 6 5 10 6 8 3 6 7 7 3 4 1 7 7 10 9 10 9 16 7 13 9 10 12 13 6 7 8 16 15 10 13 13 18 16 17 17 28 26 33 36 56
5 5 7 10 18 9 3 6 6 9 5 9 10 10 3 8 13 11 7 9 13 4 7 2 9 11 6 6 11 10 15 11 9 4 12 14 13 18 28 35 42 45 45 41 48
6 5 4 8 7 4 4 6 5 15 12 7 10 7 7 10 25 40 39 19 12 8 11 9 13 8 10 5 9 15 17 20 12 10 14 14 18 7 11 20 41 52 52 53 59
Wind_Direction_500mb
12 11 10 8 7 8 8 5 4 4 9 12 14 9 345 305 272 255 249 168 182 166 171 147 128 129 144 162 175 141 61 205 234 162 200 176 142 161 121 151 153 207 169 147 152
7 6 5 6 4 2 5 8 9 13 16 18 18 15 6 348 308 285 182 174 167 179 157 142 137 171 183 167 177 125 133 221 196 176 168 185 171 159 149 176 226 179 159 159 160
2 1 1 1 1 358 356 1 3 7 10 11 13 13 2 351 60 57 142 168 179 174 154 146 155 159 159 185 188 169 203 215 188 183 175 149 144 160 141 182 199 162 164 170 170
358 357 356 357 357 355 350 350 353 354 0 5 10 8 352 19 115 122 167 196 177 168 160 150 141 127 146 193 187 239 19 178 121 171 135 124 160 138 157 200 185 168 170 173 178
356 354 354 353 353 352 347 343 344 340 346 355 360 2 2 347 39 331 266 191 195 170 173 168 58 127 163 213 331 180 190 77 104 125 105 140 111 157 197 220 180 172 176 181 182
352 351 351 350 350 351 348 345 338 330 328 337 338 346 349 315 358 326 218 180 186 179 177 160 348 333 138 66 161 163 102 68 69 69 81 131 113 134 202 202 185 179 185 189 191
349 349 348 348 347 350 349 344 354 333 321 316 324 332 317 290 291 309 217 172 177 169 184 53 337 335 356 121 125 111 66 36 38 35 27 50 323 212 178 183 173 183 193 196 201
345 345 346 346 344 349 344 343 340 334 316 312 310 315 284 259 286 291 262 173 169 188 231 309 352 346 69 115 47 66 61 82 348 89 15 55 247 251 173 182 176 185 191 201 205
341 342 343 345 342 347 341 338 334 323 290 330 300 287 269 270 218 307 275 219 186 288 271 260 181 96 112 89 30 17 155 187 336 171 93 94 261 343 190 190 181 183 188 196 201
338 339 339 344 341 345 346 336 328 307 285 314 291 250 251 173 326 298 235 244 266 297 250 207 135 77 39 76 188 178 118 162 221 208 131 191 258 288 206 197 186 183 185 190 196
335 336 337 342 339 343 349 348 1 347 311 279 271 269 279 281 306 212 241 239 248 285 164 21 79 182 185 173 143 113 123 180 233 216 144 215 232 254 227 198 190 191 187 185 187
333 334 334 343 339 350 353 51 32 318 300 300 279 260 255 265 296 225 197 176 169 208 89 22 260 219 144 152 156 171 192 217 222 268 185 155 237 249 211 223 201 197 192 191 186
331 332 334 344 342 353 358 12 347 334 274 307 270 242 234 227 224 243 215 196 154 146 169 159 231 142 163 158 179 207 203 199 191 90 29 110 310 201 228 214 220 219 213 204 200
330 330 335 343 355 339 336 329 332 332 31 281 265 242 168 153 234 235 241 202 131 195 159 229 266 252 148 244 163 222 205 168 131 130 211 174 260 254 214 209 203 217 215 215 211
330 329 331 336 326 333 312 320 331 3 353 259 247 154 171 175 154 211 219 194 170 189 122 241 192 230 257 221 174 225 137 163 108 147 99 225 79 270 146 206 223 221 222 223 221
328 326 323 322 322 332 319 325 334 46 257 321 121 157 150 218 190 111 153 187 208 158 226 229 246 230 217 153 180 144 68 48 53 82 76 224 146 279 196 212 220 223 229 229 225
322 321 315 311 315 304 313 330 46 155 320 306 339 15 190 211 264 171 153 172 165 121 277 308 236 265 212 109 51 66 73 6 346 355 221 107 90 236 227 241 233 239 235 234 227
321 321 312 312 304 279 263 54 188 236 256 316 335 298 180 162 221 227 147 224 174 101 94 177 312 188 177 196 177 175 155 155 194 200 240 69 232 250 208 215 253 258 256 246 223
325 326 317 309 289 216 167 106 210 207 281 349 319 70 344 22 202 110 201 225 204 169 170 171 271 279 225 161 134 175 181 168 102 16 48 233 290 312 285 298 321 285 257 224 212
332 333 329 309 305 173 97 227 240 242 352 354 292 20 277 328 61 106 198 239 262 189 121 189 289 236 208 100 37 158 154 83 12 138 230 284 278 230 254 255 263 237 197 196 204
334 324 344 288 158 174 172 229 263 254 239 223 270 295 248 291 246 245 218 273 179 70 163 140 145 265 343 202 181 139 191 54 116 128 173 205 261 217 220 218 227 236 225 209 212
330 332 120 131 64 79 184 204 251 258 212 271 226 236 236 279 322 272 231 233 178 160 146 190 154 234 216 216 213 203 172 141 129 222 201 156 264 225 231 237 223 240 234 226 225
335 279 240 217 188 233 267 263 256 253 220 223 267 215 189 193 319 231 251 266 216 173 168 179 140 345 331 353 351 199 193 123 112 89 191 153 256 246 258 250 244 238 234 232 230
331 341 300 217 299 270 291 237 238 253 255 239 246 263 277 257 217 265 251 278 219 161 152 140 141 164 198 223 200 195 188 168 134 129 193 210 238 274 254 228 229 233 245 244 239
333 320 337 310 8 350 311 312 249 225 238 216 293 133 22 267 293 218 241 308 270 190 109 131 200 180 240 234 220 257 224 174 190 200 183 235 192 242 243 231 248 273 277 256 237
307 358 339 291 309 313 255 270 244 311 223 245 254 286 225 216 223 263 251 209 229 250 149 0 203 162 261 273 227 256 260 226 246 222 271 264 272 228 273 284 282 278 281 258 245
276 285 301 290 327 5 274 331 339 342 281 266 34 317 258 248 302 288 266 255 233 220 190 159 142 127 238 254 331 290 195 207 209 197 192 225 234 259 271 270 272 281 278 272 261
Wind_Speed_850mb
44 44 43 44 45 46 45 37 31 25 22 19 15 10 5 4 7 12 13 7 18 8 8 7 13 9 2 6 9 6 8 5 10 15 10 13 8 22 14 34 11 15 30 55 56
44 43 43 43 42 42 43 38 31 27 24 21 17 13 11 9 10 10 6 17 17 10 9 15 16 6 6 8 10 8 8 17 14 17 16 28 20 29 13 32 8 20 50 54 54
43 43 43 43 42 39 38 35 30 26 24 22 20 18 14 13 7 11 12 17 15 13 14 12 7 6 7 10 12 11 10 8 8 23 35 15 16 18 21 6 15 57 65 60 55
44 43 43 43 42 39 36 32 28 25 23 22 20 20 16 8 7 5 4 15 12 15 13 8 1 6 6 6 6 3 2 5 12 13 13 18 18 8 27 8 25 59 61 63 58
44 44 43 43 42 41 37 29 27 24 21 20 20 21 18 9 6 7 6 17 15 16 13 4 3 5 5 4 2 5 1 13 15 19 18 15 10 8 35 14 38 58 60 59 55
44 44 44 43 43 41 34 28 26 25 21 17 19 21 17 5 6 9 4 17 16 18 13 5 4 6 3 3 3 6 15 15 17 17 11 13 3 9 22 22 47 58 62 58 54
46 45 45 44 42 40 29 32 29 23 19 15 18 22 16 4 1 7 4 12 15 15 6 1 6 7 7 8 10 8 10 14 15 11 6 3 7 8 28 37 55 57 57 55 54
48 47 45 44 42 37 30 31 32 26 11 12 14 20 12 10 9 9 6 14 16 11 7 4 10 4 6 27 8 10 12 6 6 6 8 9 19 9 32 40 50 47 52 52 51
50 49 47 44 40 35 30 29 34 24 3 13 13 6 13 6 1 10 11 9 5 8 11 10 2 6 9 10 9 15 8 3 2 9 5 2 14 8 37 42 37 39 44 45 47
53 51 48 44 39 33 29 28 32 9 9 17 7 4 13 7 17 8 16 18 11 10 2 6 7 7 8 10 9 9 9 3 8 14 6 5 27 11 22 38 44 46 47 45 42
53 53 49 43 38 27 25 26 27 5 34 35 30 29 37 18 13 1 6 14 12 5 4 7 8 9 12 8 10 10 9 11 9 15 15 29 31 22 21 29 38 51 57 53 48
53 53 50 42 37 15 17 13 20 24 31 48 40 48 49 42 13 12 6 11 9 7 2 11 4 10 9 10 10 12 16 14 7 6 21 5 33 10 16 17 37 48 59 64 59
52 52 49 41 30 10 13 16 30 37 12 32 8 18 33 30 22 25 15 12 7 9 6 10 8 5 11 9 11 9 9 7 7 6 7 10 10 12 12 29 24 39 60 66 72
48 49 48 43 12 31 6 22 32 25 9 13 7 3 22 19 9 38 34 14 3 16 15 8 7 3 4 9 14 7 16 9 15 10 8 5 9 10 13 16 18 44 58 72 78
46 48 46 40 38 32 22 19 23 4 8 6 1 4 24 21 5 13 31 26 14 12 12 11 7 9 8 11 14 16 11 9 4 9 10 2 8 15 7 12 24 43 68 76 87
44 46 47 43 36 16 25 21 4 11 11 11 5 5 7 6 3 4 11 13 11 7 1 12 4 7 13 5 10 13 14 15 11 6 2 10 12 11 9 22 24 44 68 83 87
44 41 46 45 37 32 19 11 9 7 9 8 4 6 7 6 5 5 8 8 11 6 6 7 8 8 8 5 8 13 14 4 5 7 11 3 7 17 12 11 18 30 62 80 76
44 40 41 41 25 23 10 8 6 7 11 8 8 7 7 9 7 4 9 7 6 10 5 5 10 11 8 9 13 10 15 12 13 9 12 3 11 12 13 14 25 46 64 54 75
44 37 32 26 19 15 17 4 14 12 6 11 12 6 6 7 1 3 10 9 14 17 17 9 11 9 8 6 9 9 7 8 15 7 4 6 11 16 7 13 7 18 22 41 66
44 36 14 18 9 27 7 11 9 7 6 5 5 5 1 5 2 4 4 5 7 19 9 7 5 9 2 9 9 8 9 6 5 10 9 9 8 10 10 19 10 11 21 36 49
33 19 18 2 20 13 7 13 10 20 10 5 4 5 3 5 2 4 8 4 5 5 8 12 11 16 5 7 16 5 2 10 9 8 13 6 12 15 17 17 18 23 27 34 41
17 6 11 17 3 3 6 10 7 7 3 5 4 8 8 3 5 4 10 10 11 14 11 6 9 10 20 4 5 3 13 12 11 9 3 7 12 7 18 16 28 34 36 40 41
21 12 16 12 5 6 9 8 9 5 5 1 5 10 5 2 6 10 10 14 13 11 12 13 2 3 16 12 4 7 8 7 12 7 13 12 12 5 12 14 30 42 40 46 52
11 6 4 8 2 2 3 10 9 11 10 10 9 5 3 5 11 10 7 7 8 7 16 19 7 15 13 15 4 6 9 8 9 9 10 13 11 12 14 16 17 28 42 49 52
4 3 4 6 5 10 6 8 3 6 7 7 3 4 1 7 7 10 9 10 9 16 7 13 9 10 12 13 6 7 8 16 15 10 13 13 18 16 17 17 28 26 33 36 56
5 5 7 10 18 9 3 6 6 9 5 9 10 10 3 8 13 11 7 9 13 4 7 2 9 11 6 6 11 10 15 11 9 4 12 14 13 18 28 35 42 45 45 41 48
6 5 4 8 7 4 4 6 5 15 12 7 10 7 7 10 25 40 39 19 12 8 11 9 13 8 10 5 9 15 17 20 12 10 14 14 18 7 11 20 41 52 52 53 59
Wind_Direction_850mb
12 11 10 8 7 8 8 5 4 4 9 12 14 9 345 305 272 255 249 168 182 166 171 147 128 129 144 162 175 141 61 205 234 162 200 176 142 161 121 151 153 207 169 147 152
7 6 5 6 4 2 5 8 9 13 16 18 18 15 6 348 308 285 182 174 167 179 157 142 137 171 183 167 177 125 133 221 196 176 168 185 171 159 149 176 226 179 159 159 160
2 1 1 1 1 358 356 1 3 7 10 11 13 13 2 351 60 57 142 168 179 174 154 146 155 159 159 185 188 169 203 215 188 183 175 149 144 160 141 182 199 162 164 170 170
358 357 356 357 357 355 350 350 353 354 0 5 10 8 352 19 115 122 167 196 177 168 160 150 141 127 146 193 187 239 19 178 121 171 135 124 160 138 157 200 185 168 170 173 178
356 354 354 353 353 352 347 343 344 340 346 355 360 2 2 347 39 331 266 191 195 170 173 168 58 127 163 213 331 180 190 77 104 125 105 140 111 157 197 220 180 172 176 181 182
352 351 351 350 350 351 348 345 338 330 328 337 338 346 349 315 358 326 218 180 186 179 177 160 348 333 138 66 161 163 102 68 69 69 81 131 113 134 202 202 185 179 185 189 191
349 349 348 348 347 350 349 344 354 333 321 316 324 332 317 290 291 309 217 172 177 169 184 53 337 335 356 121 125 111 66 36 38 35 27 50 323 212 178 183 173 183 193 196 201
345 345 346 346 344 349 344 343 340 334 316 312 310 315 284 259 286 291 262 173 169 188 231 309 352 346 69 115 47 66 61 82 348 89 15 55 247 251 173 182 176 185 191 201 205
341 342 343 345 342 347 341 338 334 323 290 330 300 287 269 270 218 307 275 219 186 288 271 260 181 96 112 89 30 17 155 187 336 171 93 94 261 343 190 190 181 183 188 196 201
338 339 339 344 341 345 346 336 328 307 285 314 291 250 251 173 326 298 235 244 266 297 250 207 135 77 39 76 188 178 118 162 221 208 131 191 258 288 206 197 186 183 185 190 196
335 336 337 342 339 343 349 348 1 347 311 279 271 269 279 281 306 212 241 239 248 285 164 21 79 182 185 173 143 113 123 180 233 216 144 215 232 254 227 198 190 191 187 185 187
333 334 334 343 339 350 353 51 32 318 300 300 279 260 255 265 296 225 197 176 169 208 89 22 260 219 144 152 156 171 192 217 222 268 185 155 237 249 211 223 201 197 192 191 186
331 332 334 344 342 353 358 12 347 334 274 307 270 242 234 227 224 243 215 196 154 146 169 159 231 142 163 158 179 207 203 199 191 90 29 110 310 201 228 214 220 219 213 204 200
330 330 335 343 355 339 336 329 332 332 31 281 265 242 168 153 234 235 241 202 131 195 159 229 266 252 148 244 163 222 205 168 131 130 211 174 260 254 214 209 203 217 215 215 211
330 329 331 336 326 333 312 320 331 3 353 259 247 154 171 175 154 211 219 194 170 189 122 241 192 230 257 221 174 225 137 163 108 147 99 225 79 270 146 206 223 221 222 223 221
328 326 323 322 322 332 319 325 334 46 257 321 121 157 150 218 190 111 153 187 208 158 226 229 246 230 217 153 180 144 68 48 53 82 76 224 146 279 196 212 220 223 229 229 225
322 321 315 311 315 304 313 330 46 155 320 306 339 15 190 211 264 171 153 172 165 121 277 308 236 265 212 109 51 66 73 6 346 355 221 107 90 236 227 241 233 239 235 234 227
321 321 312 312 304 279 263 54 188 236 256 316 335 298 180 162 221 227 147 224 174 101 94 177 312 188 177 196 177 175 155 155 194 200 240 69 232 250 208 215 253 258 256 246 223
325 326 317 309 289 216 167 106 210 207 281 349 319 70 344 22 202 110 201 225 204 169 170 171 271 279 225 161 134 175 181 168 102 16 48 233 290 312 285 298 321 285 257 224 212
332 333 329 309 305 173 97 227 240 242 352 354 292 20 277 328 61 106 198 239 262 189 121 189 289 236 208 100 37 158 154 83 12 138 230 284 278 230 254 255 263 237 197 196 204
334 324 344 288 158 174 172 229 263 254 239 223 270 295 248 291 246 245 218 273 179 70 163 140 145 265 343 202 181 139 191 54 116 128 173 205 261 217 220 218 227 236 225 209 212
330 332 120 131 64 79 184 204 251 258 212 271 226 236 236 279 322 272 231 233 178 160 146 190 154 234 216 216 213 203 172 141 129 222 201 156 264 225 231 237 223 240 234 226 225
335 279 240 217 188 233 267 263 256 253 220 223 267 215 189 193 319 231 251 266 216 173 168 179 140 345 331 353 351 199 193 123 112 89 191 153 256 246 258 250 244 238 234 232 230
331 341 300 217 299 270 291 237 238 253 255 239 246 263 277 257 217 265 251 278 219 161 152 140 141 164 198 223 200 195 188 168 134 129 193 210 238 274 254 228 229 233 245 244 239
333 320 337 310 8 350 311 312 249 225 238 216 293 133 22 267 293 218 241 308 270 190 109 131 200 180 240 234 220 257 224 174 190 200 183 235 192 242 243 231 248 273 277 256 237
307 358 339 291 309 313 255 270 244 311 223 245 254 286 225 216 223 263 251 209 229 250 149 0 203 162 261 273 227 256 260 226 246 222 271 264 272 228 273 284 282 278 281 258 245
276 285 301 290 327 5 274 331 339 342 281 266 34 317 258 248 302 288 266 255 233 220 190 159 142 127 238 254 331 290 195 207 209 197 192 225 234 259 271 270 272 281 278 272 261